Location: Newark
(49.8348°N, 24.0280°E)
Time: 16:40:33
(UTC+00:00)

Explorer 7 - Pass Details

Date: 18 January 2020
Orbit: 485 x 679 km, 50.3° (Epoch: 16 February)

Event Time Altitude Azimuth Distance (km) Brightness Sun altitude
Rises 06:21:26 0° 281° (W) 2,683 9.7 0.2°
Reaches altitude 10° 06:24:20 10° 259° (WSW) 1,828 9.1 0.6°
Maximum altitude 06:26:50 16° 221° (SW) 1,529 9.0 0.9°
Drops below altitude 10° 06:29:26 10° 184° (S) 1,896 10.0 1.2°
Sets 06:32:31 0° 163° (SSE) 2,839 11.4 1.7°
